This demonstration page uses our WeatherBlox Daily Observations layout. Learn more.

41.55636, -103.73856

Hourly Observations for December 31, 2017

Temp ( °F °C ) Dew Point ( °F °C ) Humidity (%) Winds ( mph kmh ) Pressure ( in mb ) Visibility ( mi km ) Precip ( " mm )
12:53 am 00:53 Partly Cloudy 7 -13.9 1 -17.2 76 76 ENE 5 7 30.52 1034 10 16.0934 0 0
1:53 am 01:53 Clear 3 -16.1 -2 -18.9 79 79 ENE 9 15 30.55 1034 10 16.0934 0 0
2:22 am 02:22 Mostly Cloudy 1 -17 -4 -20 78 78 NNE 7 11 30.74 1041 10 16.0934 0 0
2:53 am 02:53 Cloudy 2 -16.7 -4 -20 76 76 N 3 6 30.56 1035 10 16.0934 0 0
3:28 am 03:28 Cloudy 3 -16.1 -4 -20 72 72 Calm 30.74 1041 10 16.0934 0 0
3:50 am 03:50 Cloudy 1 -17 -4 -20 78 78 Calm 30.77 1042 10 16.0934 0 0
3:53 am 03:53 Cloudy 2 -16.7 -4 -20 76 76 Calm 30.59 1036 10 16.0934 0 0
4:53 am 04:53 Cloudy 1 -17.2 -4 -20 79 79 ESE 7 11 30.62 1037 10 16.0934 0 0
5:53 am 05:53 Cloudy 1 -17.2 -5 -20.6 75 75 E 7 11 30.65 1038 10 16.0934 0 0
6:53 am 06:53 Cloudy 0 -17.8 -6 -21.1 76 76 ENE 9 15 30.67 1039 10 16.0934 0 0
7:53 am 07:53 Cloudy -1 -18.3 -7 -21.7 75 75 ENE 8 13 30.69 1039 7 11.26538 0 0
8:36 am 08:36 Cloudy with Light Snow 0 -18 -8 -22 71 71 NE 8 13 30.86 1045 2 3.21868 0 0
8:44 am 08:44 Cloudy with Light Snow 0 -18 -8 -22 71 71 NE 8 13 30.86 1045 1.5 2.41401 0 0
8:53 am 08:53 Cloudy with Light Snow -1 -18.3 -7 -21.7 75 75 NE 7 11 30.72 1040 1.75 2.816345 0 0.0254
9:10 am 09:10 Cloudy with Light Snow 0 -18 -8 -22 71 71 NE 8 13 30.92 1047 2.5 4.02335 0 0
9:20 am 09:20 Cloudy with Light Snow 0 -18 -8 -22 71 71 NE 8 13 30.92 1047 4 6.43736 0 0
9:53 am 09:53 Cloudy with Light Snow 0 -17.8 -7 -21.7 72 72 E 7 11 30.75 1041 5 8.0467 0 0.0254
10:53 am 10:53 Cloudy 0 -17.8 -7 -21.7 72 72 ESE 3 6 30.74 1041 10 16.0934 0 0.0254
11:53 am 11:53 Cloudy 0 -17.8 -5 -20.6 79 79 S 3 6 30.72 1040 10 16.0934 0 0
12:53 pm 12:53 Cloudy 2 -16.7 -5 -20.6 72 72 E 5 7 30.7 1040 9 14.48406 0 0
1:53 pm 13:53 Cloudy 1 -17.2 -5 -20.6 75 75 ESE 6 9 30.71 1040 10 16.0934 0 0
2:53 pm 14:53 Cloudy 2 -16.7 -5 -20.6 72 72 ESE 8 13 30.71 1040 10 16.0934 0 0.0254
3:06 pm 15:06 Cloudy 1 -17.2 -5 -20.6 75 75 ESE 8 13 30.86 1045 10 16.0934 0 0
3:53 pm 15:53 Cloudy 1 -17.2 -4 -20 79 79 ESE 9 15 30.71 1040 10 16.0934 0 0
4:43 pm 16:43 Cloudy 1 -17.2 -5 -20.6 75 75 ESE 10 17 30.86 1045 10 16.0934 0 0
4:53 pm 16:53 Cloudy 1 -17.2 -4 -20 79 79 ESE 9 15 30.73 1041 10 16.0934 0 0
5:53 pm 17:53 Cloudy 2 -16.7 -4 -20 76 76 ESE 10 17 30.73 1041 10 16.0934 0 0
6:05 pm 18:05 Cloudy 2 -16.7 -3 -19.4 80 80 ESE 10 17 30.86 1045 10 16.0934 0 0
6:53 pm 18:53 Cloudy 2 -16.7 -3 -19.4 80 80 ESE 10 17 30.74 1041 10 16.0934 0 0
7:53 pm 19:53 Cloudy 2 -16.7 -3 -19.4 80 80 ESE 10 17 30.75 1041 10 16.0934 0 0
8:53 pm 20:53 Cloudy 2 -16.7 -2 -18.9 83 83 ESE 10 17 30.74 1041 10 16.0934 0 0
9:53 pm 21:53 Cloudy 3 -16.1 -1 -18.3 83 83 ESE 13 20 30.73 1041 10 16.0934 0 0
10:53 pm 22:53 Cloudy 4 -15.6 0 -17.8 83 83 E 12 19 30.73 1041 10 16.0934 0 0
11:53 pm 23:53 Cloudy 4 -15.6 1 -17.2 88 88 ESE 13 20 30.72 1040 9 14.48406 0 0

Powered by AerisWeather